User: anonymous   Login
Location: Larrial
(48.2758°N, 4.5331°W)
Time: 15:34:21
(UTC+00:00)
Language:

Gurwin Techsat 1B - Orbit

View from above orbital plane
View from above orbital plane
View from above satellite
View from above satellite

Ground track
Ground track

The orbit data is extracted from the following two-line orbital elements,

1 25397U 98043D   21337.14432974  .00000001  00000-0  19851-4 0  9999
2 25397  98.7924 282.3802 0000994  10.3324 349.7874 14.23723364215710
Epoch (UTC): 03 December 2021 03:27:50
Eccentricity: 0.0000994
inclination: 98.7924°
perigee height: 812 km
apogee height: 813 km
right ascension of ascending node: 282.3802°
argument of perigee: 10.3324°
revolutions per day: 14.23723364
mean anomaly at epoch: 349.7874°
orbit number at epoch: 21571

The dashed part of the orbit path shows where the satellite is in the earth's shadow,  

DLR